Regional Weather Roundup
Issued by NWS

Home | Current Version | Previous Version | Graphics & Text | Print | Product List | Glossary Off
Versions: 1 2 3 4 5 6 7 8 9 10 11 12 13 14 15 16 17 18 19 20 21 22 23 24 25 26 27 28 29 30 31 32 33 34 35 36 37 38 39 40 41 42 43 44 45 46 47 48 49 50

000
ASUS43 KDMX 050407
RWRIA

WEATHER ROUNDUP FOR IOWA
NATIONAL WEATHER SERVICE DES MOINES IA
1100 PM CDT FRI SEP 04 2015

NOTE: "FAIR" INDICATES FEW OR NO CLOUDS BELOW 12,000 FEET WITH NO
SIGNIFICANT WEATHER AND/OR OBSTRUCTIONS TO VISIBILITY.

* - THESE STATIONS ARE NOT NWS STATIONS...THUS NOT UNDER NWS
QUALITY CONTROL.  THEY ALSO DO NOT REPORT WEATHER SUCH
AS PRECIPITATION OR FOG.

IAZ001>003-012>014-020>022-031>034-043>046-050500-
   NORTHWEST IOWA

CITY           SKY/WX    TMP DP  RH WIND       PRES   REMARKS
CARROLL *      CLEAR     73  73 100 SE8       29.96S
CHEROKEE *     PTCLDY    77  72  83 SE13G20   29.91S
DENISON *      CLEAR     77  70  78 SE13      29.92S
LE MARS *      CLEAR     77  72  83 SE13G20   29.89S
ORANGE CITY *  CLEAR     75  72  88 SE10      29.90S
SHELDON *      CLOUDY    77  70  78 SE14G22   29.89S
SIOUX CITY     CLEAR     76  70  82 SE10      29.87S
SPENCER        CLEAR     77  70  79 SE15      29.92F
STORM LAKE *   CLEAR     75  70  83 SE9       29.95F
$$

IAZ055>058-069>071-079>083-090>094-050500-
   SOUTHWEST IOWA

CITY           SKY/WX    TMP DP  RH WIND       PRES   REMARKS
ATLANTIC *     CLEAR     77  70  78 S8        29.95S
AUDUBON *      CLEAR     73  70  88 CALM      29.97S
CLARINDA *     CLEAR     72  70  94 CALM      29.97F
COUNCIL BLFS *   N/A     77  68  73 S13       29.93S
CRESTON *      CLEAR     75  70  83 SE8       30.00S
LAMONI         MOCLDY    79  69  71 S6        29.99R HX  81
RED OAK *      CLEAR     75  70  83 S5        29.95S
SHENANDOAH *   CLEAR     77  70  78 SE9       29.94F
$$

IAZ047>049-059>061-072>074-084-050500-
   CENTRAL IOWA

CITY           SKY/WX    TMP DP  RH WIND       PRES   REMARKS
AMES           CLOUDY    77  72  84 SE7       29.97S
ANKENY *       CLEAR     77  73  88 CALM      29.97S
CHARITON *     CLOUDY    77  70  78 S5        29.99R
DES MOINES     CLOUDY    80  70  71 S7        29.97S HX  83
GRINNELL*      MOCLDY    73  70  88 E5        30.01S
KNOXVILLE *    PTCLDY    77  70  78 SE3       29.98R
MARSHALLTOWN   CLOUDY    77  72  84 SE6       29.98S
PELLA *        MOCLDY    75  73  94 SE3       30.00R
PERRY *          N/A     76  73  88 SE5       29.96F
$$

IAZ004>006-015-016-023>025-035-036-050500-
   NORTH CENTRAL IOWA

CITY           SKY/WX    TMP DP  RH WIND       PRES   REMARKS
ALGONA *       PTCLDY    77  72  83 SE10      29.96S
CLARION *      CLEAR     77  72  83 SE8       29.97F
ESTHERVILLE    PTCLDY    76  71  85 S13       29.94S
FORT DODGE *   CLOUDY    75  70  83 SE6       29.97S
MASON CITY     CLOUDY    75  73  93 SE8       30.00F
FOREST CITY *  CLEAR     73  73 100 SE7       29.98F
IOWA FALLS *     N/A     77  73  88 E3        30.00S
$$

IAZ007>011-017>019-026>030-037>042-050>054-066-050500-
   NORTHEAST IOWA

CITY           SKY/WX    TMP DP  RH WIND       PRES   REMARKS
CEDAR RAPIDS   PTCLDY    75  73  93 E5        29.99S
CHARLES CITY * CLOUDY    77  75  94 SE7       30.00F
CLINTON *      CLEAR     73  72  94 E5        30.03F
DECORAH *      DRIZZLE   75  72  88 SE6       30.01S
DUBUQUE        CLEAR     76  71  85 SE7       30.03S
MONTICELLO *   CLEAR     73  72  94 CALM      30.00S
OELWEIN *      MOCLDY    75  72  88 SE7       30.02R
WATERLOO       CLOUDY    79  73  82 S5        29.98S HX  82
$$

IAZ064-065-067-068-078-050500-
   EAST CENTRAL IOWA

CITY           SKY/WX    TMP DP  RH WIND       PRES   REMARKS
DAVENPORT      PTCLDY    74  70  87 SE7       30.02R
IOWA CITY      PTCLDY    76  71  85 CALM      30.00S
MT. PLEASANT * CLEAR     77  68  73 SE5       30.00S
MUSCATINE *      N/A     73  70  88 NW3       30.00S
QUAD CITIES    PTCLDY    74  69  85 SE3       30.01R
$$

IAZ062-063-075>077-085>089-095>099-050500-
   SOUTHEAST IOWA

CITY           SKY/WX    TMP DP  RH WIND       PRES   REMARKS
BURLINGTON     CLEAR     76  71  85 SE5       30.00S
FAIRFIELD *    PTCLDY    75  68  78 CALM      30.00R
FORT MADISON * CLEAR     75  70  83 S6        30.01S
KEOKUK *       CLEAR     77  72  83 S6        30.00S
OSKALOOSA *      N/A     75  68  78 SE3       30.00R
CENTERVILLE *  CLEAR     73  70  88 SE7       30.01S
OTTUMWA        PTCLDY    75  69  81 SE5       29.98R
WASHINGTON *     N/A    N/A N/A N/A MISG        N/A
$$

ABBREVIATIONS USED IN REMARKS
   TC - TEMPERATURES IN CELSIUS
  WCI - WIND CHILL INDEX
   HX - HEAT INDEX
  VSB - VISIBILITY
$$




USA.gov is the U.S. government's official web portal to all federal, state and local government web resources and services.